Regional Weather Roundup
Issued by NWS

Home | Current Version | Previous Version | Graphics & Text | Print | Product List | Glossary On
Versions: 1 2 3 4 5 6 7 8 9 10 11 12 13 14 15 16 17 18 19 20 21 22 23 24 25 26 27 28 29 30 31 32 33 34 35 36 37 38 39 40 41 42 43 44 45 46 47 48 49 50
529
ASUS45 KBOI 022310
RWRID

IDAHO REGIONAL WEATHER ROUNDUP
NATIONAL WEATHER SERVICE BOISE ID
400 PM MST FRI DEC 02 2016

NOTE: "FAIR" INDICATES FEW OR NO CLOUDS BELOW 12000 FEET
WITH NO SIGNIFICANT WEATHER AND/OR OBSTRUCTIONS TO VISIBILITY

IDZ012-014-030000-
SOUTHWEST IDAHO


CITY           SKY/WX    TMP DP  RH WIND       PRES   REMARKS
BOISE          PTCLDY    37  22  54 CALM      30.34F
CALDWELL       PTCLDY    39  24  55 NE3       30.35F
MOUNTAIN HOME  PTCLDY    35  25  68 CALM      30.34F
$$

IDZ016-017-030000-
SOUTHCENTRAL IDAHO


CITY           SKY/WX    TMP DP  RH WIND       PRES   REMARKS
BURLEY         MOCLDY    33  21  61 W8        30.29R WCI  26
JEROME         CLEAR     30  22  72 SW10      30.31S WCI  21
TWIN FALLS     CLEAR     32  21  64 W9        30.31R WCI  24
$$

IDZ019>023-030000-
SOUTHEAST IDAHO


CITY           SKY/WX    TMP DP  RH WIND       PRES   REMARKS
IDAHO FALLS    CLOUDY    24  19  81 SW12      30.28S WCI  13
POCATELLO      CLOUDY    27  21  78 SW12      30.30S WCI  17
REXBURG        CLOUDY    24  19  81 S5        30.26S WCI  18
$$

IDZ006-010-011-018-031-032-030000-
CENTRAL IDAHO MOUNTAINS


CITY           SKY/WX    TMP DP  RH WIND       PRES   REMARKS
MCCALL         CLOUDY    22  14  71 SE3       30.22F
HAILEY         CLEAR     27  19  74 SE12      30.25R WCI  16
STANLEY          N/A     27   9  46 NW3       30.20S
SALMON         CLOUDY    34  16  47 N3        30.20S
CHALLIS        CLEAR     32  15  49 W3        30.19F
$$

IDZ002-004-006-007-026-030000-
NORTHERN IDAHO


CITY           SKY/WX    TMP DP  RH WIND       PRES   REMARKS
LEWISTON       CLOUDY    39  30  70 VRB3      30.26F
LOWELL           N/A     39  35  86 CALM      30.31F
COEUR D`ALENE  LGT RAIN  35  32  88 S13       30.17F WCI  26
MULLAN PASS    CLOUDY    21  18  88 VRB5      30.07F WCI  15
$$




USA.gov is the U.S. government's official web portal to all federal, state and local government web resources and services.